YU2KBI-13 Weather Reports


Display with metric or nautical units.
time (UTC)temp
F
wind
direction
speed
MPH
gust
MPH
rain 1hr
in
rain 24hr
in
rain mn
in
humidity
%
barometer
mb
20260506102732 83 0.0 0.0 0.00 0.00 0.00 3 986.5
20260506102632 85 0.0 0.0 0.00 0.00 0.00 3 986.4
20260506102532 86 0.0 0.0 0.00 0.00 0.00 3 986.5
20260506102431 85 0.0 0.0 0.00 0.00 0.00 3 986.5
20260506102331 84 0.0 0.0 0.00 0.00 0.00 3 986.6
20260506102231 82 0.0 0.0 0.00 0.00 0.00 3 986.6
20260506102131 82 0.0 0.0 0.00 0.00 0.00 3 986.6
20260506102031 82 0.0 0.0 0.00 0.00 0.00 3 986.7
20260506101931 83 0.0 0.0 0.00 0.00 0.00 3 986.6
20260506101831 82 0.0 0.0 0.00 0.00 0.00 3 986.7
20260506101731 81 0.0 0.0 0.00 0.00 0.00 3 986.6
20260506101631 82 0.0 0.0 0.00 0.00 0.00 3 986.6
20260506101531 83 0.0 0.0 0.00 0.00 0.00 3 986.6
20260506101431 82 0.0 0.0 0.00 0.00 0.00 3 986.7
20260506101330 83 0.0 0.0 0.00 0.00 0.00 3 986.6
20260506101230 82 0.0 0.0 0.00 0.00 0.00 3 986.6
20260506101130 83 0.0 0.0 0.00 0.00 0.00 3 986.6
20260506101030 81 0.0 0.0 0.00 0.00 0.00 3 986.8
20260506100930 80 0.0 0.0 0.00 0.00 0.00 3 986.7
20260506100830 80 0.0 0.0 0.00 0.00 0.00 3 986.8
20260506100730 79 0.0 0.0 0.00 0.00 0.00 3 986.8
20260506100630 79 0.0 0.0 0.00 0.00 0.00 3 986.8
20260506100530 80 0.0 0.0 0.00 0.00 0.00 3 986.8
20260506100430 81 0.0 0.0 0.00 0.00 0.00 3 986.9
20260506100330 80 0.0 0.0 0.00 0.00 0.00 3 986.9
20260506100229 80 0.0 0.0 0.00 0.00 0.00 3 986.9
20260506100129 80 0.0 0.0 0.00 0.00 0.00 3 986.9
20260506100029 82 0.0 0.0 0.00 0.00 0.00 3 986.8
20260506095929 82 0.0 0.0 0.00 0.00 0.00 3 986.9
20260506095829 81 0.0 0.0 0.00 0.00 0.00 3 986.8
20260506095729 80 0.0 0.0 0.00 0.00 0.00 3 986.9
20260506095629 79 0.0 0.0 0.00 0.00 0.00 3 986.9
20260506095529 81 0.0 0.0 0.00 0.00 0.00 3 986.9
20260506095429 83 0.0 0.0 0.00 0.00 0.00 3 986.9
20260506095329 83 0.0 0.0 0.00 0.00 0.00 3 987.0
20260506095229 81 0.0 0.0 0.00 0.00 0.00 3 987.0
20260506095129 79 0.0 0.0 0.00 0.00 0.00 3 987.1
20260506095029 78 0.0 0.0 0.00 0.00 0.00 3 987.0
20260506094929 78 0.0 0.0 0.00 0.00 0.00 3 987.0
20260506094828 79 0.0 0.0 0.00 0.00 0.00 3 987.0
20260506094728 79 0.0 0.0 0.00 0.00 0.00 3 987.0
20260506094628 80 0.0 0.0 0.00 0.00 0.00 3 987.0
20260506094528 78 0.0 0.0 0.00 0.00 0.00 3 987.1
20260506094428 77 0.0 0.0 0.00 0.00 0.00 3 987.1
20260506094328 77 0.0 0.0 0.00 0.00 0.00 3 987.1
20260506094228 77 0.0 0.0 0.00 0.00 0.00 3 987.2
20260506094128 77 0.0 0.0 0.00 0.00 0.00 3 987.2
20260506094028 79 0.0 0.0 0.00 0.00 0.00 3 987.2
20260506093928 80 0.0 0.0 0.00 0.00 0.00 3 987.1
20260506093828 78 0.0 0.0 0.00 0.00 0.00 3 987.1
20260506093728 78 0.0 0.0 0.00 0.00 0.00 3 987.1
20260506093628 79 0.0 0.0 0.00 0.00 0.00 3 987.1
20260506093527 80 0.0 0.0 0.00 0.00 0.00 3 987.0
20260506093427 79 0.0 0.0 0.00 0.00 0.00 3 987.1
20260506093327 78 0.0 0.0 0.00 0.00 0.00 3 987.1
20260506093227 78 0.0 0.0 0.00 0.00 0.00 3 987.1
20260506093127 77 0.0 0.0 0.00 0.00 0.00 3 987.1
20260506093027 78 0.0 0.0 0.00 0.00 0.00 3 987.1
20260506092927 77 0.0 0.0 0.00 0.00 0.00 3 987.2
20260506092827 78 0.0 0.0 0.00 0.00 0.00 3 987.2
20260506092727 78 0.0 0.0 0.00 0.00 0.00 3 987.2
20260506092627 77 0.0 0.0 0.00 0.00 0.00 3 987.2
20260506092527 78 0.0 0.0 0.00 0.00 0.00 3 987.3
20260506092427 78 0.0 0.0 0.00 0.00 0.00 3 987.3
20260506092327 78 0.0 0.0 0.00 0.00 0.00 3 987.3
20260506092226 78 0.0 0.0 0.00 0.00 0.00 3 987.3
20260506092126 77 0.0 0.0 0.00 0.00 0.00 3 987.3
20260506092026 78 0.0 0.0 0.00 0.00 0.00 3 987.3
20260506091926 77 0.0 0.0 0.00 0.00 0.00 3 987.3
20260506091826 78 0.0 0.0 0.00 0.00 0.00 3 987.3
20260506091726 77 0.0 0.0 0.00 0.00 0.00 3 987.3
20260506091626 77 0.0 0.0 0.00 0.00 0.00 3 987.4
20260506091526 77 0.0 0.0 0.00 0.00 0.00 3 987.4
20260506091426 78 0.0 0.0 0.00 0.00 0.00 3 987.4
20260506091326 78 0.0 0.0 0.00 0.00 0.00 3 987.4
20260506091226 80 0.0 0.0 0.00 0.00 0.00 3 987.4
20260506091126 77 0.0 0.0 0.00 0.00 0.00 3 987.5
20260506091026 77 0.0 0.0 0.00 0.00 0.00 3 987.4
20260506090925 77 0.0 0.0 0.00 0.00 0.00 3 987.4
20260506090825 78 0.0 0.0 0.00 0.00 0.00 3 987.4
20260506090725 78 0.0 0.0 0.00 0.00 0.00 3 987.4
20260506090625 77 0.0 0.0 0.00 0.00 0.00 3 987.4
20260506090525 76 0.0 0.0 0.00 0.00 0.00 3 987.5
20260506090425 76 0.0 0.0 0.00 0.00 0.00 3 987.5
20260506090325 76 0.0 0.0 0.00 0.00 0.00 3 987.5
20260506090225 76 0.0 0.0 0.00 0.00 0.00 3 987.5
20260506090125 78 0.0 0.0 0.00 0.00 0.00 3 987.5
20260506090025 75 0.0 0.0 0.00 0.00 0.00 3 987.5
20260506085925 75 0.0 0.0 0.00 0.00 0.00 3 987.6
20260506085824 76 0.0 0.0 0.00 0.00 0.00 3 987.6
20260506085724 76 0.0 0.0 0.00 0.00 0.00 3 987.6
20260506085624 76 0.0 0.0 0.00 0.00 0.00 3 987.6
20260506085524 77 0.0 0.0 0.00 0.00 0.00 3 987.6
20260506085424 76 0.0 0.0 0.00 0.00 0.00 3 987.6
20260506085324 78 0.0 0.0 0.00 0.00 0.00 3 987.6
20260506085224 77 0.0 0.0 0.00 0.00 0.00 3 987.6
20260506085124 75 0.0 0.0 0.00 0.00 0.00 3 987.6
20260506085024 78 0.0 0.0 0.00 0.00 0.00 3 987.6
20260506084924 77 0.0 0.0 0.00 0.00 0.00 4 987.7
20260506084824 74 0.0 0.0 0.00 0.00 0.00 3 987.7
20260506084724 75 0.0 0.0 0.00 0.00 0.00 3 987.7
20260506084623 76 0.0 0.0 0.00 0.00 0.00 3 987.7
20260506084523 78 0.0 0.0 0.00 0.00 0.00 3 987.6
20260506084424 79 0.0 0.0 0.00 0.00 0.00 4 987.7
20260506084323 77 0.0 0.0 0.00 0.00 0.00 4 987.7
20260506084223 76 0.0 0.0 0.00 0.00 0.00 3 987.6
20260506084123 76 0.0 0.0 0.00 0.00 0.00 3 987.7
20260506084023 75 0.0 0.0 0.00 0.00 0.00 3 987.7
20260506083923 75 0.0 0.0 0.00 0.00 0.00 3 987.7
20260506083823 77 0.0 0.0 0.00 0.00 0.00 3 987.6
20260506083723 78 0.0 0.0 0.00 0.00 0.00 3 987.6
20260506083623 77 0.0 0.0 0.00 0.00 0.00 3 987.6
20260506083523 77 0.0 0.0 0.00 0.00 0.00 3 987.6
20260506083423 76 0.0 0.0 0.00 0.00 0.00 3 987.6
20260506083322 76 0.0 0.0 0.00 0.00 0.00 3 987.6
20260506083222 76 0.0 0.0 0.00 0.00 0.00 3 987.6
20260506083122 75 0.0 0.0 0.00 0.00 0.00 4 987.7
20260506083022 75 0.0 0.0 0.00 0.00 0.00 3 987.7
20260506082922 76 0.0 0.0 0.00 0.00 0.00 3 987.7
20260506082822 77 0.0 0.0 0.00 0.00 0.00 4 987.7
20260506082722 76 0.0 0.0 0.00 0.00 0.00 4 987.8
20260506082622 75 0.0 0.0 0.00 0.00 0.00 4 987.8
20260506082522 75 0.0 0.0 0.00 0.00 0.00 3 987.7
20260506082422 75 0.0 0.0 0.00 0.00 0.00 3 987.7
20260506082322 75 0.0 0.0 0.00 0.00 0.00 4 987.8
20260506082222 74 0.0 0.0 0.00 0.00 0.00 3 987.7
20260506082122 74 0.0 0.0 0.00 0.00 0.00 3 987.7
20260506082021 75 0.0 0.0 0.00 0.00 0.00 3 987.7
20260506081921 76 0.0 0.0 0.00 0.00 0.00 4 987.7
20260506081821 74 0.0 0.0 0.00 0.00 0.00 3 987.7
20260506081721 75 0.0 0.0 0.00 0.00 0.00 3 987.7
20260506081621 76 0.0 0.0 0.00 0.00 0.00 3 987.7
20260506081521 76 0.0 0.0 0.00 0.00 0.00 4 987.8
20260506081421 74 0.0 0.0 0.00 0.00 0.00 4 987.8
20260506081321 74 0.0 0.0 0.00 0.00 0.00 4 987.8
20260506081221 74 0.0 0.0 0.00 0.00 0.00 4 987.8
20260506081121 76 0.0 0.0 0.00 0.00 0.00 4 987.8
20260506081021 74 0.0 0.0 0.00 0.00 0.00 4 987.8
20260506080921 73 0.0 0.0 0.00 0.00 0.00 4 987.8
20260506080820 74 0.0 0.0 0.00 0.00 0.00 4 987.8
20260506080720 73 0.0 0.0 0.00 0.00 0.00 4 987.8
20260506080620 74 0.0 0.0 0.00 0.00 0.00 4 987.9
20260506080520 74 0.0 0.0 0.00 0.00 0.00 4 987.9
20260506080420 73 0.0 0.0 0.00 0.00 0.00 4 987.9
20260506080320 73 0.0 0.0 0.00 0.00 0.00 4 987.9
20260506080220 73 0.0 0.0 0.00 0.00 0.00 4 987.9
20260506080120 73 0.0 0.0 0.00 0.00 0.00 4 987.8
20260506073518 71 0.0 0.0 0.00 0.00 0.00 5 988.1
20260506073418 71 0.0 0.0 0.00 0.00 0.00 5 988.1
20260506073318 71 0.0 0.0 0.00 0.00 0.00 5 988.2
20260506073218 70 0.0 0.0 0.00 0.00 0.00 5 988.2
20260506073118 70 0.0 0.0 0.00 0.00 0.00 5 988.2
20260506073018 70 0.0 0.0 0.00 0.00 0.00 5 988.3
20260506072917 69 0.0 0.0 0.00 0.00 0.00 5 988.3
20260506072817 69 0.0 0.0 0.00 0.00 0.00 5 988.3
20260506072717 69 0.0 0.0 0.00 0.00 0.00 5 988.3
20260506072617 69 0.0 0.0 0.00 0.00 0.00 5 988.3
20260506072517 69 0.0 0.0 0.00 0.00 0.00 5 988.3
20260506072417 70 0.0 0.0 0.00 0.00 0.00 5 988.3
20260506072317 69 0.0 0.0 0.00 0.00 0.00 5 988.3
20260506072217 70 0.0 0.0 0.00 0.00 0.00 5 988.3
20260506072117 70 0.0 0.0 0.00 0.00 0.00 5 988.3
20260506072017 70 0.0 0.0 0.00 0.00 0.00 5 988.3
20260506071917 69 0.0 0.0 0.00 0.00 0.00 5 988.3
20260506071817 70 0.0 0.0 0.00 0.00 0.00 5 988.4
20260506071717 69 0.0 0.0 0.00 0.00 0.00 5 988.4
20260506071616 69 0.0 0.0 0.00 0.00 0.00 5 988.4
20260506071516 69 0.0 0.0 0.00 0.00 0.00 5 988.5
20260506071416 69 0.0 0.0 0.00 0.00 0.00 5 988.5
20260506071316 69 0.0 0.0 0.00 0.00 0.00 5 988.4
20260506071216 69 0.0 0.0 0.00 0.00 0.00 5 988.5
20260506071116 68 0.0 0.0 0.00 0.00 0.00 5 988.5
20260506071016 68 0.0 0.0 0.00 0.00 0.00 5 988.5
20260506070916 68 0.0 0.0 0.00 0.00 0.00 5 988.5
20260506070816 69 0.0 0.0 0.00 0.00 0.00 5 988.4
20260506070716 68 0.0 0.0 0.00 0.00 0.00 6 988.5
20260506070616 68 0.0 0.0 0.00 0.00 0.00 6 988.5
20260506070516 67 0.0 0.0 0.00 0.00 0.00 6 988.5
20260506070416 68 0.0 0.0 0.00 0.00 0.00 6 988.5
20260506070315 67 0.0 0.0 0.00 0.00 0.00 6 988.5
20260506070215 67 0.0 0.0 0.00 0.00 0.00 6 988.6
20260506070115 68 0.0 0.0 0.00 0.00 0.00 6 988.6
20260506062512 63 0.0 0.0 0.00 0.00 0.00 6 989.1
20260506062412 63 0.0 0.0 0.00 0.00 0.00 6 989.1
20260506062312 63 0.0 0.0 0.00 0.00 0.00 7 989.1
20260506062212 63 0.0 0.0 0.00 0.00 0.00 6 989.1
20260506062112 63 0.0 0.0 0.00 0.00 0.00 7 989.1
20260506062012 63 0.0 0.0 0.00 0.00 0.00 7 989.2
20260506061912 63 0.0 0.0 0.00 0.00 0.00 7 989.2
20260506061812 63 0.0 0.0 0.00 0.00 0.00 7 989.2
20260506061712 63 0.0 0.0 0.00 0.00 0.00 7 989.2
20260506061612 63 0.0 0.0 0.00 0.00 0.00 6 989.2
20260506061512 62 0.0 0.0 0.00 0.00 0.00 6 989.2
20260506061412 63 0.0 0.0 0.00 0.00 0.00 6 989.2
20260506061311 63 0.0 0.0 0.00 0.00 0.00 6 989.2
20260506061211 63 0.0 0.0 0.00 0.00 0.00 7 989.2
20260506061111 63 0.0 0.0 0.00 0.00 0.00 7 989.2
20260506061011 63 0.0 0.0 0.00 0.00 0.00 6 989.2
20260506060911 62 0.0 0.0 0.00 0.00 0.00 6 989.2
20260506060811 63 0.0 0.0 0.00 0.00 0.00 6 989.2
20260506060711 63 0.0 0.0 0.00 0.00 0.00 7 989.2
20260506060611 62 0.0 0.0 0.00 0.00 0.00 7 989.2
20260506060511 62 0.0 0.0 0.00 0.00 0.00 7 989.2
20260506060411 62 0.0 0.0 0.00 0.00 0.00 7 989.2
20260506060311 62 0.0 0.0 0.00 0.00 0.00 7 989.2
20260506060210 62 0.0 0.0 0.00 0.00 0.00 7 989.2
20260506060110 62 0.0 0.0 0.00 0.00 0.00 7 989.2
20260506051407 59 0.0 0.0 0.00 0.00 0.00 7 989.4
20260506051306 59 0.0 0.0 0.00 0.00 0.00 7 989.4
20260506051206 59 0.0 0.0 0.00 0.00 0.00 7 989.4
20260506051106 59 0.0 0.0 0.00 0.00 0.00 7 989.4
20260506051006 59 0.0 0.0 0.00 0.00 0.00 7 989.4
20260506050906 59 0.0 0.0 0.00 0.00 0.00 7 989.4
20260506050806 59 0.0 0.0 0.00 0.00 0.00 7 989.4
20260506050706 58 0.0 0.0 0.00 0.00 0.00 7 989.4
20260506050606 58 0.0 0.0 0.00 0.00 0.00 7 989.4
20260506050506 58 0.0 0.0 0.00 0.00 0.00 8 989.4
20260506050406 58 0.0 0.0 0.00 0.00 0.00 8 989.4
20260506050306 58 0.0 0.0 0.00 0.00 0.00 8 989.4
20260506050205 58 0.0 0.0 0.00 0.00 0.00 8 989.4
20260506050105 58 0.0 0.0 0.00 0.00 0.00 8 989.4
20260506045105 57 0.0 0.0 0.00 0.00 0.00 8 989.4
20260506045004 57 0.0 0.0 0.00 0.00 0.00 8 989.3
20260506044904 57 0.0 0.0 0.00 0.00 0.00 8 989.3
20260506044804 57 0.0 0.0 0.00 0.00 0.00 8 989.3
20260506044704 57 0.0 0.0 0.00 0.00 0.00 8 989.3
20260506044604 56 0.0 0.0 0.00 0.00 0.00 8 989.3
20260506044504 56 0.0 0.0 0.00 0.00 0.00 8 989.4
20260506044404 56 0.0 0.0 0.00 0.00 0.00 8 989.3
20260506044304 56 0.0 0.0 0.00 0.00 0.00 8 989.3
20260506044204 56 0.0 0.0 0.00 0.00 0.00 8 989.4
20260506044104 56 0.0 0.0 0.00 0.00 0.00 8 989.4
20260506044004 56 0.0 0.0 0.00 0.00 0.00 8 989.4
20260506043904 56 0.0 0.0 0.00 0.00 0.00 8 989.4
20260506043804 56 0.0 0.0 0.00 0.00 0.00 8 989.4
20260506043703 56 0.0 0.0 0.00 0.00 0.00 8 989.4
20260506043603 56 0.0 0.0 0.00 0.00 0.00 8 989.3
20260506043503 56 0.0 0.0 0.00 0.00 0.00 8 989.4
20260506043404 55 0.0 0.0 0.00 0.00 0.00 9 989.3
20260506043303 55 0.0 0.0 0.00 0.00 0.00 9 989.3
20260506043203 55 0.0 0.0 0.00 0.00 0.00 9 989.4
20260506043103 55 0.0 0.0 0.00 0.00 0.00 9 989.4
20260506043003 55 0.0 0.0 0.00 0.00 0.00 10 989.4
20260506042903 54 0.0 0.0 0.00 0.00 0.00 10 989.4
20260506042803 54 0.0 0.0 0.00 0.00 0.00 10 989.4
20260506042703 54 0.0 0.0 0.00 0.00 0.00 10 989.4
20260506042603 54 0.0 0.0 0.00 0.00 0.00 10 989.4
20260506042503 54 0.0 0.0 0.00 0.00 0.00 10 989.4
20260506042403 55 0.0 0.0 0.00 0.00 0.00 9 989.4
20260506042305 55 0.0 0.0 0.00 0.00 0.00 9 989.4
20260506042202 54 0.0 0.0 0.00 0.00 0.00 10 989.4
20260506042102 54 0.0 0.0 0.00 0.00 0.00 10 989.4
20260506042002 54 0.0 0.0 0.00 0.00 0.00 10 989.4
20260506041902 54 0.0 0.0 0.00 0.00 0.00 10 989.4
20260506041802 54 0.0 0.0 0.00 0.00 0.00 10 989.4
20260506041702 54 0.0 0.0 0.00 0.00 0.00 10 989.4
20260506041602 54 0.0 0.0 0.00 0.00 0.00 10 989.4
20260506041502 53 0.0 0.0 0.00 0.00 0.00 10 989.4
20260506041402 53 0.0 0.0 0.00 0.00 0.00 10 989.3
20260506041302 53 0.0 0.0 0.00 0.00 0.00 10 989.3
20260506041202 53 0.0 0.0 0.00 0.00 0.00 10 989.3
20260506041101 53 0.0 0.0 0.00 0.00 0.00 10 989.3
20260506041001 53 0.0 0.0 0.00 0.00 0.00 10 989.3
20260506040901 53 0.0 0.0 0.00 0.00 0.00 10 989.3
20260506040801 53 0.0 0.0 0.00 0.00 0.00 10 989.3
20260506040701 52 0.0 0.0 0.00 0.00 0.00 10 989.4
20260506040601 52 0.0 0.0 0.00 0.00 0.00 10 989.3
20260506040501 52 0.0 0.0 0.00 0.00 0.00 10 989.4
20260506040401 52 0.0 0.0 0.00 0.00 0.00 10 989.3
20260506040301 52 0.0 0.0 0.00 0.00 0.00 10 989.4
20260506040201 52 0.0 0.0 0.00 0.00 0.00 10 989.3
20260506040101 52 0.0 0.0 0.00 0.00 0.00 10 989.3
20260506040001 52 0.0 0.0 0.00 0.00 0.00 10 989.3
20260506035900 52 0.0 0.0 0.00 0.00 0.00 10 989.3
20260506035800 52 0.0 0.0 0.00 0.00 0.00 10 989.3
20260506035700 51 0.0 0.0 0.00 0.00 0.00 10 989.4
20260506035600 51 0.0 0.0 0.00 0.00 0.00 10 989.3
20260506035500 51 0.0 0.0 0.00 0.00 0.00 10 989.3
20260506035400 51 0.0 0.0 0.00 0.00 0.00 10 989.3
20260506035300 51 0.0 0.0 0.00 0.00 0.00 10 989.3
20260506035200 51 0.0 0.0 0.00 0.00 0.00 10 989.3
20260506035100 51 0.0 0.0 0.00 0.00 0.00 10 989.3
20260506035000 51 0.0 0.0 0.00 0.00 0.00 10 989.3
20260506034900 51 0.0 0.0 0.00 0.00 0.00 10 989.3
20260506034800 51 0.0 0.0 0.00 0.00 0.00 10 989.3
20260506034659 51 0.0 0.0 0.00 0.00 0.00 10 989.3
20260506034559 51 0.0 0.0 0.00 0.00 0.00 10 989.3
20260506034459 51 0.0 0.0 0.00 0.00 0.00 10 989.3
20260506034359 51 0.0 0.0 0.00 0.00 0.00 10 989.2
20260506034259 51 0.0 0.0 0.00 0.00 0.00 10 989.3
20260506034159 51 0.0 0.0 0.00 0.00 0.00 10 989.3
20260506034059 50 0.0 0.0 0.00 0.00 0.00 10 989.3
20260506033959 50 0.0 0.0 0.00 0.00 0.00 10 989.3
20260506033859 50 0.0 0.0 0.00 0.00 0.00 10 989.3
20260506033759 50 0.0 0.0 0.00 0.00 0.00 10 989.3
20260506033659 50 0.0 0.0 0.00 0.00 0.00 10 989.3
20260506033559 50 0.0 0.0 0.00 0.00 0.00 10 989.3
20260506033459 50 0.0 0.0 0.00 0.00 0.00 10 989.3
20260506033359 50 0.0 0.0 0.00 0.00 0.00 10 989.2
20260506033259 50 0.0 0.0 0.00 0.00 0.00 10 989.2
20260506033158 50 0.0 0.0 0.00 0.00 0.00 10 989.2
20260506033058 50 0.0 0.0 0.00 0.00 0.00 10 989.2
20260506032958 50 0.0 0.0 0.00 0.00 0.00 10 989.2
20260506032858 50 0.0 0.0 0.00 0.00 0.00 10 989.2
20260506032758 50 0.0 0.0 0.00 0.00 0.00 10 989.2
20260506032658 50 0.0 0.0 0.00 0.00 0.00 10 989.2
20260506032558 50 0.0 0.0 0.00 0.00 0.00 10 989.2
20260506032458 50 0.0 0.0 0.00 0.00 0.00 10 989.2
20260506032358 50 0.0 0.0 0.00 0.00 0.00 10 989.2
20260506032258 50 0.0 0.0 0.00 0.00 0.00 10 989.2
20260506032158 49 0.0 0.0 0.00 0.00 0.00 10 989.2
20260506032058 50 0.0 0.0 0.00 0.00 0.00 10 989.2
20260506031957 49 0.0 0.0 0.00 0.00 0.00 10 989.2
20260506031857 49 0.0 0.0 0.00 0.00 0.00 10 989.2
20260506031757 49 0.0 0.0 0.00 0.00 0.00 10 989.2
20260506031657 49 0.0 0.0 0.00 0.00 0.00 10 989.2
20260506031557 49 0.0 0.0 0.00 0.00 0.00 10 989.2
20260506031457 49 0.0 0.0 0.00 0.00 0.00 10 989.2
20260506031357 49 0.0 0.0 0.00 0.00 0.00 10 989.2
20260506031257 49 0.0 0.0 0.00 0.00 0.00 10 989.1
20260506031157 49 0.0 0.0 0.00 0.00 0.00 10 989.2
20260506031057 49 0.0 0.0 0.00 0.00 0.00 10 989.2
20260506030957 49 0.0 0.0 0.00 0.00 0.00 10 989.2
20260506030857 49 0.0 0.0 0.00 0.00 0.00 10 989.2
20260506030757 49 0.0 0.0 0.00 0.00 0.00 10 989.2
20260506030657 49 0.0 0.0 0.00 0.00 0.00 10 989.1
20260506030556 49 0.0 0.0 0.00 0.00 0.00 10 989.1
20260506030456 49 0.0 0.0 0.00 0.00 0.00 10 989.1
20260506030356 49 0.0 0.0 0.00 0.00 0.00 10 989.1
20260506030256 49 0.0 0.0 0.00 0.00 0.00 10 989.1
20260506030156 49 0.0 0.0 0.00 0.00 0.00 10 989.1
20260506030056 49 0.0 0.0 0.00 0.00 0.00 10 989.1
20260506025956 49 0.0 0.0 0.00 0.00 0.00 10 989.1
20260506025856 49 0.0 0.0 0.00 0.00 0.00 10 989.1
20260506025756 49 0.0 0.0 0.00 0.00 0.00 10 989.1
20260506025656 49 0.0 0.0 0.00 0.00 0.00 10 989.1
20260506025556 49 0.0 0.0 0.00 0.00 0.00 10 989.1
20260506025456 49 0.0 0.0 0.00 0.00 0.00 10 989.1
20260506025356 48 0.0 0.0 0.00 0.00 0.00 10 989.1
20260506025255 49 0.0 0.0 0.00 0.00 0.00 10 989.1
20260506025155 49 0.0 0.0 0.00 0.00 0.00 10 989.1
20260506025055 48 0.0 0.0 0.00 0.00 0.00 10 989.1
20260506024955 48 0.0 0.0 0.00 0.00 0.00 10 989.1
20260506024855 48 0.0 0.0 0.00 0.00 0.00 10 989.1
20260506024755 48 0.0 0.0 0.00 0.00 0.00 10 989.1
20260506024655 48 0.0 0.0 0.00 0.00 0.00 10 989.1
20260506024555 48 0.0 0.0 0.00 0.00 0.00 10 989.1
20260506024455 48 0.0 0.0 0.00 0.00 0.00 10 989.1
20260506024355 48 0.0 0.0 0.00 0.00 0.00 10 989.1
20260506024255 48 0.0 0.0 0.00 0.00 0.00 10 989.1
20260506024155 48 0.0 0.0 0.00 0.00 0.00 10 989.1
20260506024054 48 0.0 0.0 0.00 0.00 0.00 10 989.1
20260506023954 48 0.0 0.0 0.00 0.00 0.00 10 989.1
20260506023854 48 0.0 0.0 0.00 0.00 0.00 10 989.1
20260506023754 48 0.0 0.0 0.00 0.00 0.00 10 989.1
20260506023654 48 0.0 0.0 0.00 0.00 0.00 10 989.1
20260506023554 48 0.0 0.0 0.00 0.00 0.00 10 989.1
20260506023454 48 0.0 0.0 0.00 0.00 0.00 10 989.1
20260506023354 48 0.0 0.0 0.00 0.00 0.00 10 989.1
20260506023254 48 0.0 0.0 0.00 0.00 0.00 10 989.1
20260506023154 48 0.0 0.0 0.00 0.00 0.00 10 989.1
20260506023054 48 0.0 0.0 0.00 0.00 0.00 10 989.1
20260506022954 48 0.0 0.0 0.00 0.00 0.00 10 989.1
20260506022854 48 0.0 0.0 0.00 0.00 0.00 10 989.1
20260506022754 47 0.0 0.0 0.00 0.00 0.00 10 989.1
20260506022654 47 0.0 0.0 0.00 0.00 0.00 10 989.1
20260506022553 48 0.0 0.0 0.00 0.00 0.00 10 989.1
20260506022453 48 0.0 0.0 0.00 0.00 0.00 10 989.1
20260506022353 48 0.0 0.0 0.00 0.00 0.00 10 989.1
20260506022253 48 0.0 0.0 0.00 0.00 0.00 10 989.0
20260506022153 48 0.0 0.0 0.00 0.00 0.00 10 989.0
20260506022053 48 0.0 0.0 0.00 0.00 0.00 10 989.0
20260506021953 48 0.0 0.0 0.00 0.00 0.00 10 989.0
20260506021853 48 0.0 0.0 0.00 0.00 0.00 10 989.0
20260506021753 48 0.0 0.0 0.00 0.00 0.00 10 989.0
20260506021653 48 0.0 0.0 0.00 0.00 0.00 10 989.0
20260506021553 48 0.0 0.0 0.00 0.00 0.00 10 989.1
20260506021453 48 0.0 0.0 0.00 0.00 0.00 10 989.1
20260506021353 48 0.0 0.0 0.00 0.00 0.00 10 989.1
20260506021253 48 0.0 0.0 0.00 0.00 0.00 10 989.1
20260506021152 48 0.0 0.0 0.00 0.00 0.00 10 989.1
20260506021052 48 0.0 0.0 0.00 0.00 0.00 10 989.1
20260506020952 47 0.0 0.0 0.00 0.00 0.00 10 989.1
20260506020852 47 0.0 0.0 0.00 0.00 0.00 10 989.1
20260506020752 47 0.0 0.0 0.00 0.00 0.00 10 989.1
20260506020652 47 0.0 0.0 0.00 0.00 0.00 10 989.1
20260506020552 47 0.0 0.0 0.00 0.00 0.00 10 989.1
20260506020452 47 0.0 0.0 0.00 0.00 0.00 10 989.2
20260506020352 47 0.0 0.0 0.00 0.00 0.00 10 989.2
20260506020252 47 0.0 0.0 0.00 0.00 0.00 10 989.2
20260506020152 47 0.0 0.0 0.00 0.00 0.00 10 989.2
20260506020052 47 0.0 0.0 0.00 0.00 0.00 10 989.2
20260506015952 47 0.0 0.0 0.00 0.00 0.00 10 989.2
20260506015852 47 0.0 0.0 0.00 0.00 0.00 10 989.1
20260506015752 47 0.0 0.0 0.00 0.00 0.00 10 989.1
20260506015651 47 0.0 0.0 0.00 0.00 0.00 10 989.1
20260506015551 47 0.0 0.0 0.00 0.00 0.00 10 989.1
20260506015451 47 0.0 0.0 0.00 0.00 0.00 10 989.1
20260506015351 48 0.0 0.0 0.00 0.00 0.00 10 989.0
20260506015251 47 0.0 0.0 0.00 0.00 0.00 10 989.1
20260506015151 47 0.0 0.0 0.00 0.00 0.00 10 989.1
20260506015051 47 0.0 0.0 0.00 0.00 0.00 10 989.1
20260506014951 48 0.0 0.0 0.00 0.00 0.00 10 989.1
20260506014851 47 0.0 0.0 0.00 0.00 0.00 10 989.1
20260506014751 47 0.0 0.0 0.00 0.00 0.00 10 989.1
20260506014651 48 0.0 0.0 0.00 0.00 0.00 10 989.1
20260506014551 47 0.0 0.0 0.00 0.00 0.00 10 989.1
20260506014451 47 0.0 0.0 0.00 0.00 0.00 10 989.1
20260506014351 47 0.0 0.0 0.00 0.00 0.00 10 989.1
20260506014250 47 0.0 0.0 0.00 0.00 0.00 10 989.1
20260506014150 48 0.0 0.0 0.00 0.00 0.00 10 989.1
20260506014050 47 0.0 0.0 0.00 0.00 0.00 10 989.0
20260506013950 47 0.0 0.0 0.00 0.00 0.00 10 989.1
20260506013850 47 0.0 0.0 0.00 0.00 0.00 10 989.1
20260506013750 48 0.0 0.0 0.00 0.00 0.00 10 989.0
20260506013650 48 0.0 0.0 0.00 0.00 0.00 10 989.0
20260506013550 48 0.0 0.0 0.00 0.00 0.00 10 989.0
20260506013450 48 0.0 0.0 0.00 0.00 0.00 10 989.0
20260506013350 47 0.0 0.0 0.00 0.00 0.00 10 989.0
20260506013250 48 0.0 0.0 0.00 0.00 0.00 10 989.0
20260506013150 47 0.0 0.0 0.00 0.00 0.00 10 989.0
20260506013049 48 0.0 0.0 0.00 0.00 0.00 10 989.0
20260506012949 48 0.0 0.0 0.00 0.00 0.00 10 989.0
20260506012849 48 0.0 0.0 0.00 0.00 0.00 10 989.0
20260506012749 48 0.0 0.0 0.00 0.00 0.00 10 989.0
20260506012649 47 0.0 0.0 0.00 0.00 0.00 10 989.1
20260506012549 47 0.0 0.0 0.00 0.00 0.00 10 989.1
20260506012449 47 0.0 0.0 0.00 0.00 0.00 10 989.1
20260506012349 47 0.0 0.0 0.00 0.00 0.00 10 989.1
20260506012249 47 0.0 0.0 0.00 0.00 0.00 10 989.1
20260506012149 47 0.0 0.0 0.00 0.00 0.00 10 989.1
20260506012049 47 0.0 0.0 0.00 0.00 0.00 10 989.0
20260506011948 48 0.0 0.0 0.00 0.00 0.00 10 989.1
20260506011848 47 0.0 0.0 0.00 0.00 0.00 10 989.0
20260506011748 47 0.0 0.0 0.00 0.00 0.00 10 989.1
20260506011648 47 0.0 0.0 0.00 0.00 0.00 10 989.0
20260506011548 47 0.0 0.0 0.00 0.00 0.00 10 989.0
20260506011448 48 0.0 0.0 0.00 0.00 0.00 10 989.0
20260506011348 48 0.0 0.0 0.00 0.00 0.00 10 989.0
20260506011248 48 0.0 0.0 0.00 0.00 0.00 10 989.0
20260506011148 48 0.0 0.0 0.00 0.00 0.00 10 989.0
20260506011048 48 0.0 0.0 0.00 0.00 0.00 10 989.0
20260506010948 48 0.0 0.0 0.00 0.00 0.00 10 989.0
20260506010848 47 0.0 0.0 0.00 0.00 0.00 10 989.0
20260506010747 47 0.0 0.0 0.00 0.00 0.00 10 989.0
20260506010647 47 0.0 0.0 0.00 0.00 0.00 10 989.0
20260506010547 47 0.0 0.0 0.00 0.00 0.00 10 989.0
20260506010447 47 0.0 0.0 0.00 0.00 0.00 10 989.0
20260506010347 47 0.0 0.0 0.00 0.00 0.00 10 989.0
20260506010247 47 0.0 0.0 0.00 0.00 0.00 10 989.0
20260506010147 47 0.0 0.0 0.00 0.00 0.00 10 989.0
20260506010047 48 0.0 0.0 0.00 0.00 0.00 10 989.0
20260506005947 48 0.0 0.0 0.00 0.00 0.00 10 989.0
20260506005847 48 0.0 0.0 0.00 0.00 0.00 10 988.9
20260506005747 48 0.0 0.0 0.00 0.00 0.00 10 988.9
20260506005646 48 0.0 0.0 0.00 0.00 0.00 10 988.9
20260506005546 49 0.0 0.0 0.00 0.00 0.00 10 988.9
20260506005446 49 0.0 0.0 0.00 0.00 0.00 10 988.9
20260506005346 49 0.0 0.0 0.00 0.00 0.00 10 988.9
20260506005246 49 0.0 0.0 0.00 0.00 0.00 10 988.9
20260506005146 49 0.0 0.0 0.00 0.00 0.00 10 988.9
20260506005046 49 0.0 0.0 0.00 0.00 0.00 10 988.8
20260506004946 49 0.0 0.0 0.00 0.00 0.00 10 988.8
20260506004846 49 0.0 0.0 0.00 0.00 0.00 10 988.8
20260506004746 49 0.0 0.0 0.00 0.00 0.00 10 988.8
20260506004646 49 0.0 0.0 0.00 0.00 0.00 10 988.8
20260506004546 49 0.0 0.0 0.00 0.00 0.00 10 988.8
20260506004446 49 0.0 0.0 0.00 0.00 0.00 10 988.9
20260506004346 50 0.0 0.0 0.00 0.00 0.00 10 988.9
20260506004245 49 0.0 0.0 0.00 0.00 0.00 10 988.9
20260506004145 49 0.0 0.0 0.00 0.00 0.00 10 988.9
20260506004045 49 0.0 0.0 0.00 0.00 0.00 10 988.9
20260506003945 49 0.0 0.0 0.00 0.00 0.00 10 988.8
20260506003845 49 0.0 0.0 0.00 0.00 0.00 10 988.8
20260506003745 49 0.0 0.0 0.00 0.00 0.00 10 988.8
20260506003645 49 0.0 0.0 0.00 0.00 0.00 10 988.8
20260506003545 49 0.0 0.0 0.00 0.00 0.00 10 988.8
20260506003445 49 0.0 0.0 0.00 0.00 0.00 10 988.8
20260506003345 49 0.0 0.0 0.00 0.00 0.00 10 988.8
20260506003245 49 0.0 0.0 0.00 0.00 0.00 10 988.8
20260506003145 49 0.0 0.0 0.00 0.00 0.00 10 988.8
20260506003045 49 0.0 0.0 0.00 0.00 0.00 10 988.8
20260506002944 49 0.0 0.0 0.00 0.00 0.00 10 988.8
20260506002844 49 0.0 0.0 0.00 0.00 0.00 10 988.7
20260506002744 49 0.0 0.0 0.00 0.00 0.00 10 988.7
20260506002644 49 0.0 0.0 0.00 0.00 0.00 10 988.7
20260506002544 49 0.0 0.0 0.00 0.00 0.00 10 988.7
20260506002444 49 0.0 0.0 0.00 0.00 0.00 10 988.7
20260506002344 49 0.0 0.0 0.00 0.00 0.00 10 988.7
20260506002244 49 0.0 0.0 0.00 0.00 0.00 10 988.7
20260506002144 49 0.0 0.0 0.00 0.00 0.00 10 988.7
20260506002044 49 0.0 0.0 0.00 0.00 0.00 10 988.7
20260506001944 49 0.0 0.0 0.00 0.00 0.00 10 988.7
20260506001843 49 0.0 0.0 0.00 0.00 0.00 10 988.7
20260506001743 49 0.0 0.0 0.00 0.00 0.00 10 988.7
20260506001643 49 0.0 0.0 0.00 0.00 0.00 10 988.7
20260506001543 49 0.0 0.0 0.00 0.00 0.00 10 988.7
20260506001443 49 0.0 0.0 0.00 0.00 0.00 10 988.7
20260506001343 49 0.0 0.0 0.00 0.00 0.00 10 988.7
20260506001243 49 0.0 0.0 0.00 0.00 0.00 10 988.7
20260506001143 49 0.0 0.0 0.00 0.00 0.00 10 988.7
20260506001043 49 0.0 0.0 0.00 0.00 0.00 10 988.7
20260506000943 49 0.0 0.0 0.00 0.00 0.00 10 988.7
20260506000843 49 0.0 0.0 0.00 0.00 0.00 10 988.7
20260506000743 49 0.0 0.0 0.00 0.00 0.00 10 988.7
20260506000643 49 0.0 0.0 0.00 0.00 0.00 10 988.7
20260506000543 49 0.0 0.0 0.00 0.00 0.00 10 988.7
20260506000442 49 0.0 0.0 0.00 0.00 0.00 10 988.7
20260506000342 49 0.0 0.0 0.00 0.00 0.00 10 988.7
20260506000242 49 0.0 0.0 0.00 0.00 0.00 10 988.7
20260506000142 50 0.0 0.0 0.00 0.00 0.00 10 988.7
20260506000042 49 0.0 0.0 0.00 0.00 0.00 10 988.7
20260505235942 49 0.0 0.0 0.00 0.00 0.00 10 988.7
20260505235842 49 0.0 0.0 0.00 0.00 0.00 10 988.7
20260505235742 49 0.0 0.0 0.00 0.00 0.00 10 988.7
20260505235642 49 0.0 0.0 0.00 0.00 0.00 10 988.7
20260505235542 49 0.0 0.0 0.00 0.00 0.00 10 988.7
20260505235442 49 0.0 0.0 0.00 0.00 0.00 10 988.7
20260505235342 50 0.0 0.0 0.00 0.00 0.00 10 988.7
20260505235241 50 0.0 0.0 0.00 0.00 0.00 10 988.6
20260505235141 50 0.0 0.0 0.00 0.00 0.00 10 988.6
20260505235041 50 0.0 0.0 0.00 0.00 0.00 10 988.6
20260505234941 50 0.0 0.0 0.00 0.00 0.00 10 988.6
20260505234841 50 0.0 0.0 0.00 0.00 0.00 10 988.6
20260505234741 50 0.0 0.0 0.00 0.00 0.00 10 988.6
20260505234641 50 0.0 0.0 0.00 0.00 0.00 10 988.5
20260505234541 50 0.0 0.0 0.00 0.00 0.00 10 988.5
20260505234441 50 0.0 0.0 0.00 0.00 0.00 10 988.5
20260505234341 50 0.0 0.0 0.00 0.00 0.00 10 988.5
20260505234241 50 0.0 0.0 0.00 0.00 0.00 10 988.5
20260505234141 50 0.0 0.0 0.00 0.00 0.00 10 988.5
20260505234041 50 0.0 0.0 0.00 0.00 0.00 10 988.5
20260505233940 50 0.0 0.0 0.00 0.00 0.00 10 988.5
20260505233840 50 0.0 0.0 0.00 0.00 0.00 10 988.5
20260505233740 50 0.0 0.0 0.00 0.00 0.00 10 988.5
20260505233640 50 0.0 0.0 0.00 0.00 0.00 10 988.5
20260505233540 50 0.0 0.0 0.00 0.00 0.00 10 988.5
20260505233440 50 0.0 0.0 0.00 0.00 0.00 10 988.5
20260505233340 50 0.0 0.0 0.00 0.00 0.00 10 988.5
20260505233240 50 0.0 0.0 0.00 0.00 0.00 10 988.5
20260505233140 50 0.0 0.0 0.00 0.00 0.00 10 988.5
20260505233040 50 0.0 0.0 0.00 0.00 0.00 10 988.5
20260505232940 50 0.0 0.0 0.00 0.00 0.00 10 988.5
20260505232840 50 0.0 0.0 0.00 0.00 0.00 10 988.5
20260505232739 50 0.0 0.0 0.00 0.00 0.00 10 988.5
20260505232639 50 0.0 0.0 0.00 0.00 0.00 10 988.6
20260505232539 50 0.0 0.0 0.00 0.00 0.00 10 988.6
20260505232439 50 0.0 0.0 0.00 0.00 0.00 10 988.6
20260505232339 50 0.0 0.0 0.00 0.00 0.00 10 988.6
20260505232239 50 0.0 0.0 0.00 0.00 0.00 10 988.6
20260505232139 50 0.0 0.0 0.00 0.00 0.00 10 988.6
20260505232039 49 0.0 0.0 0.00 0.00 0.00 10 988.7
20260505231939 49 0.0 0.0 0.00 0.00 0.00 10 988.7
20260505231839 49 0.0 0.0 0.00 0.00 0.00 10 988.7
20260505231739 49 0.0 0.0 0.00 0.00 0.00 10 988.7
20260505231639 50 0.0 0.0 0.00 0.00 0.00 10 988.6
20260505231538 50 0.0 0.0 0.00 0.00 0.00 10 988.6
20260505231438 50 0.0 0.0 0.00 0.00 0.00 10 988.6
20260505231338 50 0.0 0.0 0.00 0.00 0.00 10 988.6
20260505231238 49 0.0 0.0 0.00 0.00 0.00 10 988.7
20260505231138 49 0.0 0.0 0.00 0.00 0.00 10 988.7
20260505231038 50 0.0 0.0 0.00 0.00 0.00 10 988.6
20260505230938 50 0.0 0.0 0.00 0.00 0.00 10 988.6
20260505230838 50 0.0 0.0 0.00 0.00 0.00 10 988.6
20260505230738 50 0.0 0.0 0.00 0.00 0.00 10 988.6
20260505230638 50 0.0 0.0 0.00 0.00 0.00 10 988.6
20260505230538 50 0.0 0.0 0.00 0.00 0.00 10 988.6
20260505230438 50 0.0 0.0 0.00 0.00 0.00 10 988.6
20260505230338 50 0.0 0.0 0.00 0.00 0.00 10 988.6
20260505230237 50 0.0 0.0 0.00 0.00 0.00 10 988.6
20260505230137 50 0.0 0.0 0.00 0.00 0.00 10 988.6
20260505230037 50 0.0 0.0 0.00 0.00 0.00 10 988.6
20260505225937 49 0.0 0.0 0.00 0.00 0.00 10 988.7
20260505225837 49 0.0 0.0 0.00 0.00 0.00 10 988.7
20260505225737 50 0.0 0.0 0.00 0.00 0.00 10 988.6
20260505225637 50 0.0 0.0 0.00 0.00 0.00 10 988.6
20260505225537 50 0.0 0.0 0.00 0.00 0.00 10 988.6
20260505225437 50 0.0 0.0 0.00 0.00 0.00 10 988.6
20260505225337 50 0.0 0.0 0.00 0.00 0.00 10 988.6
20260505225237 50 0.0 0.0 0.00 0.00 0.00 10 988.6
20260505225137 50 0.0 0.0 0.00 0.00 0.00 10 988.6
20260505225037 50 0.0 0.0 0.00 0.00 0.00 10 988.6
20260505224937 50 0.0 0.0 0.00 0.00 0.00 10 988.6
20260505224837 50 0.0 0.0 0.00 0.00 0.00 10 988.5
20260505224736 50 0.0 0.0 0.00 0.00 0.00 10 988.5
20260505224636 50 0.0 0.0 0.00 0.00 0.00 10 988.5
20260505224536 50 0.0 0.0 0.00 0.00 0.00 10 988.5
20260505224436 51 0.0 0.0 0.00 0.00 0.00 10 988.4
20260505224336 50 0.0 0.0 0.00 0.00 0.00 10 988.5
20260505224236 50 0.0 0.0 0.00 0.00 0.00 10 988.4
20260505224136 51 0.0 0.0 0.00 0.00 0.00 10 988.4
20260505224036 51 0.0 0.0 0.00 0.00 0.00 10 988.4
20260505223936 51 0.0 0.0 0.00 0.00 0.00 10 988.3
20260505223836 50 0.0 0.0 0.00 0.00 0.00 10 988.3
20260505223736 50 0.0 0.0 0.00 0.00 0.00 10 988.4
20260505223636 50 0.0 0.0 0.00 0.00 0.00 10 988.3
20260505223535 50 0.0 0.0 0.00 0.00 0.00 10 988.3
20260505223435 50 0.0 0.0 0.00 0.00 0.00 10 988.3
20260505223335 50 0.0 0.0 0.00 0.00 0.00 10 988.3
20260505223235 50 0.0 0.0 0.00 0.00 0.00 10 988.3
20260505223135 50 0.0 0.0 0.00 0.00 0.00 10 988.3
20260505223035 50 0.0 0.0 0.00 0.00 0.00 10 988.3
20260505222935 50 0.0 0.0 0.00 0.00 0.00 10 988.3
20260505222835 50 0.0 0.0 0.00 0.00 0.00 10 988.3
20260505222735 50 0.0 0.0 0.00 0.00 0.00 10 988.2
20260505222635 51 0.0 0.0 0.00 0.00 0.00 10 988.3
20260505222535 50 0.0 0.0 0.00 0.00 0.00 10 988.3
20260505222435 50 0.0 0.0 0.00 0.00 0.00 10 988.3
20260505222334 51 0.0 0.0 0.00 0.00 0.00 10 988.2
20260505222234 50 0.0 0.0 0.00 0.00 0.00 10 988.3
20260505222134 50 0.0 0.0 0.00 0.00 0.00 10 988.3
20260505222034 50 0.0 0.0 0.00 0.00 0.00 10 988.2
20260505221934 51 0.0 0.0 0.00 0.00 0.00 10 988.2
20260505221834 50 0.0 0.0 0.00 0.00 0.00 10 988.2
20260505221734 50 0.0 0.0 0.00 0.00 0.00 10 988.2
20260505221634 51 0.0 0.0 0.00 0.00 0.00 10 988.2
20260505221534 51 0.0 0.0 0.00 0.00 0.00 10 988.2
20260505221434 51 0.0 0.0 0.00 0.00 0.00 10 988.3
20260505221334 51 0.0 0.0 0.00 0.00 0.00 10 988.3
20260505221234 51 0.0 0.0 0.00 0.00 0.00 10 988.3
20260505221134 51 0.0 0.0 0.00 0.00 0.00 10 988.3
20260505221034 50 0.0 0.0 0.00 0.00 0.00 10 988.3
20260505220933 51 0.0 0.0 0.00 0.00 0.00 10 988.3
20260505220833 51 0.0 0.0 0.00 0.00 0.00 10 988.3
20260505220733 51 0.0 0.0 0.00 0.00 0.00 10 988.3
20260505220633 51 0.0 0.0 0.00 0.00 0.00 10 988.3
20260505220533 51 0.0 0.0 0.00 0.00 0.00 10 988.2
20260505220433 51 0.0 0.0 0.00 0.00 0.00 10 988.2
20260505220333 51 0.0 0.0 0.00 0.00 0.00 10 988.2
20260505220233 51 0.0 0.0 0.00 0.00 0.00 10 988.2
20260505220133 51 0.0 0.0 0.00 0.00 0.00 10 988.2
20260505220033 51 0.0 0.0 0.00 0.00 0.00 10 988.3
20260505215933 51 0.0 0.0 0.00 0.00 0.00 10 988.2
20260505215833 52 0.0 0.0 0.00 0.00 0.00 10 988.2
20260505215733 52 0.0 0.0 0.00 0.00 0.00 10 988.2
20260505215633 52 0.0 0.0 0.00 0.00 0.00 10 988.2
20260505215533 52 0.0 0.0 0.00 0.00 0.00 10 988.3
20260505215433 51 0.0 0.0 0.00 0.00 0.00 10 988.3
20260505215332 52 0.0 0.0 0.00 0.00 0.00 10 988.3
20260505215232 52 0.0 0.0 0.00 0.00 0.00 10 988.3
20260505215132 52 0.0 0.0 0.00 0.00 0.00 10 988.3
20260505215032 52 0.0 0.0 0.00 0.00 0.00 9 988.2
20260505214932 53 0.0 0.0 0.00 0.00 0.00 9 988.2
20260505214832 53 0.0 0.0 0.00 0.00 0.00 9 988.2
20260505214732 52 0.0 0.0 0.00 0.00 0.00 9 988.2
20260505214632 52 0.0 0.0 0.00 0.00 0.00 9 988.2
20260505214532 53 0.0 0.0 0.00 0.00 0.00 9 988.2
20260505214432 53 0.0 0.0 0.00 0.00 0.00 9 988.2
20260505214332 53 0.0 0.0 0.00 0.00 0.00 9 988.1
20260505214232 54 0.0 0.0 0.00 0.00 0.00 9 988.1
20260505214131 54 0.0 0.0 0.00 0.00 0.00 9 988.2
20260505214031 54 0.0 0.0 0.00 0.00 0.00 8 988.1
20260505213931 54 0.0 0.0 0.00 0.00 0.00 8 988.1
20260505213831 54 0.0 0.0 0.00 0.00 0.00 8 988.1
20260505213731 54 0.0 0.0 0.00 0.00 0.00 9 988.1
20260505213631 54 0.0 0.0 0.00 0.00 0.00 9 988.2
20260505213531 53 0.0 0.0 0.00 0.00 0.00 9 988.2
20260505213431 53 0.0 0.0 0.00 0.00 0.00 9 988.1
20260505213331 54 0.0 0.0 0.00 0.00 0.00 9 988.1
20260505213231 54 0.0 0.0 0.00 0.00 0.00 9 988.1
20260505213131 54 0.0 0.0 0.00 0.00 0.00 8 988.1
20260505213031 54 0.0 0.0 0.00 0.00 0.00 8 988.1
20260505212931 54 0.0 0.0 0.00 0.00 0.00 9 988.1
20260505212830 54 0.0 0.0 0.00 0.00 0.00 9 988.1
20260505212730 54 0.0 0.0 0.00 0.00 0.00 9 988.1
20260505212630 54 0.0 0.0 0.00 0.00 0.00 9 988.1
20260505212530 53 0.0 0.0 0.00 0.00 0.00 9 988.1
20260505212430 53 0.0 0.0 0.00 0.00 0.00 9 988.0
20260505212330 53 0.0 0.0 0.00 0.00 0.00 9 988.0
20260505212230 53 0.0 0.0 0.00 0.00 0.00 9 988.0
20260505212130 53 0.0 0.0 0.00 0.00 0.00 9 988.0
20260505212030 53 0.0 0.0 0.00 0.00 0.00 9 988.0
20260505211930 54 0.0 0.0 0.00 0.00 0.00 8 988.0
20260505211830 54 0.0 0.0 0.00 0.00 0.00 8 987.9
20260505211730 54 0.0 0.0 0.00 0.00 0.00 8 987.9
20260505211630 54 0.0 0.0 0.00 0.00 0.00 8 987.9
20260505211530 54 0.0 0.0 0.00 0.00 0.00 8 987.9
20260505211430 54 0.0 0.0 0.00 0.00 0.00 8 987.9
20260505211329 54 0.0 0.0 0.00 0.00 0.00 8 987.9
20260505211229 55 0.0 0.0 0.00 0.00 0.00 8 987.8
20260505211129 56 0.0 0.0 0.00 0.00 0.00 8 987.8
20260505211029 56 0.0 0.0 0.00 0.00 0.00 8 987.8
20260505210929 55 0.0 0.0 0.00 0.00 0.00 8 987.8
20260505210829 54 0.0 0.0 0.00 0.00 0.00 8 987.9
20260505210729 54 0.0 0.0 0.00 0.00 0.00 8 987.8
20260505210629 54 0.0 0.0 0.00 0.00 0.00 8 987.9
20260505210529 54 0.0 0.0 0.00 0.00 0.00 8 987.9
20260505210429 54 0.0 0.0 0.00 0.00 0.00 8 987.9
20260505210329 54 0.0 0.0 0.00 0.00 0.00 8 987.9
20260505210228 54 0.0 0.0 0.00 0.00 0.00 8 987.9
20260505210128 54 0.0 0.0 0.00 0.00 0.00 8 987.9
20260505210028 54 0.0 0.0 0.00 0.00 0.00 8 988.0
20260505205928 55 0.0 0.0 0.00 0.00 0.00 8 987.9
20260505205828 54 0.0 0.0 0.00 0.00 0.00 8 988.0
20260505205728 53 0.0 0.0 0.00 0.00 0.00 8 988.0
20260505205628 54 0.0 0.0 0.00 0.00 0.00 8 987.9
20260505205528 55 0.0 0.0 0.00 0.00 0.00 8 987.9
20260505205428 55 0.0 0.0 0.00 0.00 0.00 8 987.8
20260505205328 55 0.0 0.0 0.00 0.00 0.00 8 987.8
20260505205228 55 0.0 0.0 0.00 0.00 0.00 8 987.8
20260505205128 55 0.0 0.0 0.00 0.00 0.00 8 987.8
20260505205028 55 0.0 0.0 0.00 0.00 0.00 8 987.8
20260505204928 55 0.0 0.0 0.00 0.00 0.00 8 987.8
20260505204827 55 0.0 0.0 0.00 0.00 0.00 8 987.9
20260505204727 55 0.0 0.0 0.00 0.00 0.00 8 987.8
20260505204627 55 0.0 0.0 0.00 0.00 0.00 8 987.8
20260505204527 55 0.0 0.0 0.00 0.00 0.00 8 987.8
20260505204427 55 0.0 0.0 0.00 0.00 0.00 8 987.8
20260505204327 55 0.0 0.0 0.00 0.00 0.00 8 987.9
20260505204227 55 0.0 0.0 0.00 0.00 0.00 8 987.8
20260505204127 55 0.0 0.0 0.00 0.00 0.00 8 987.9
20260505204027 55 0.0 0.0 0.00 0.00 0.00 8 987.8
20260505203927 55 0.0 0.0 0.00 0.00 0.00 8 987.8
20260505203827 55 0.0 0.0 0.00 0.00 0.00 8 987.8
20260505203727 55 0.0 0.0 0.00 0.00 0.00 8 987.8
20260505203626 55 0.0 0.0 0.00 0.00 0.00 8 987.8
20260505203526 55 0.0 0.0 0.00 0.00 0.00 8 987.8
20260505203426 55 0.0 0.0 0.00 0.00 0.00 8 987.8
20260505203326 55 0.0 0.0 0.00 0.00 0.00 8 987.8
20260505203226 55 0.0 0.0 0.00 0.00 0.00 8 987.8
20260505203126 55 0.0 0.0 0.00 0.00 0.00 8 987.8
20260505203026 55 0.0 0.0 0.00 0.00 0.00 8 987.7
20260505202926 55 0.0 0.0 0.00 0.00 0.00 8 987.7
20260505202826 55 0.0 0.0 0.00 0.00 0.00 8 987.7
20260505202726 55 0.0 0.0 0.00 0.00 0.00 8 987.7
20260505202626 55 0.0 0.0 0.00 0.00 0.00 8 987.7
20260505202526 55 0.0 0.0 0.00 0.00 0.00 8 987.7
20260505202426 55 0.0 0.0 0.00 0.00 0.00 8 987.7
20260505202325 55 0.0 0.0 0.00 0.00 0.00 8 987.6
20260505202225 55 0.0 0.0 0.00 0.00 0.00 8 987.6
20260505202125 55 0.0 0.0 0.00 0.00 0.00 8 987.6
20260505202025 55 0.0 0.0 0.00 0.00 0.00 8 987.6
20260505201925 55 0.0 0.0 0.00 0.00 0.00 8 987.6
20260505201825 54 0.0 0.0 0.00 0.00 0.00 8 987.7
20260505201725 55 0.0 0.0 0.00 0.00 0.00 8 987.6
20260505201625 54 0.0 0.0 0.00 0.00 0.00 8 987.6
20260505201525 55 0.0 0.0 0.00 0.00 0.00 8 987.6
20260505201425 54 0.0 0.0 0.00 0.00 0.00 8 987.6
20260505201325 54 0.0 0.0 0.00 0.00 0.00 8 987.6
20260505201225 54 0.0 0.0 0.00 0.00 0.00 8 987.6
20260505201125 54 0.0 0.0 0.00 0.00 0.00 8 987.6
20260505201025 54 0.0 0.0 0.00 0.00 0.00 8 987.6
20260505200924 54 0.0 0.0 0.00 0.00 0.00 8 987.5
20260505200824 55 0.0 0.0 0.00 0.00 0.00 8 987.5
20260505200724 54 0.0 0.0 0.00 0.00 0.00 8 987.5
20260505200624 54 0.0 0.0 0.00 0.00 0.00 8 987.5
20260505200524 54 0.0 0.0 0.00 0.00 0.00 8 987.5
20260505200424 55 0.0 0.0 0.00 0.00 0.00 8 987.5
20260505200324 55 0.0 0.0 0.00 0.00 0.00 8 987.4
20260505200224 55 0.0 0.0 0.00 0.00 0.00 8 987.4
20260505200124 54 0.0 0.0 0.00 0.00 0.00 8 987.4
20260505200024 54 0.0 0.0 0.00 0.00 0.00 8 987.4
20260505195924 55 0.0 0.0 0.00 0.00 0.00 8 987.4
20260505195823 55 0.0 0.0 0.00 0.00 0.00 8 987.4
20260505195723 55 0.0 0.0 0.00 0.00 0.00 8 987.4
20260505195623 55 0.0 0.0 0.00 0.00 0.00 8 987.4
20260505195523 55 0.0 0.0 0.00 0.00 0.00 8 987.4
20260505195423 55 0.0 0.0 0.00 0.00 0.00 8 987.4
20260505195323 55 0.0 0.0 0.00 0.00 0.00 8 987.4
20260505195223 55 0.0 0.0 0.00 0.00 0.00 8 987.4
20260505195123 55 0.0 0.0 0.00 0.00 0.00 8 987.4
20260505195023 55 0.0 0.0 0.00 0.00 0.00 8 987.4
20260505194923 55 0.0 0.0 0.00 0.00 0.00 8 987.4
20260505194823 55 0.0 0.0 0.00 0.00 0.00 8 987.4
20260505194723 56 0.0 0.0 0.00 0.00 0.00 7 987.4
20260505194623 56 0.0 0.0 0.00 0.00 0.00 7 987.3
20260505194523 56 0.0 0.0 0.00 0.00 0.00 7 987.3
20260505194422 56 0.0 0.0 0.00 0.00 0.00 7 987.3
20260505194322 56 0.0 0.0 0.00 0.00 0.00 7 987.3
20260505194222 56 0.0 0.0 0.00 0.00 0.00 7 987.2
20260505194122 57 0.0 0.0 0.00 0.00 0.00 7 987.2
20260505194022 56 0.0 0.0 0.00 0.00 0.00 7 987.2
20260505193922 56 0.0 0.0 0.00 0.00 0.00 7 987.2
20260505193822 56 0.0 0.0 0.00 0.00 0.00 7 987.2
20260505193722 56 0.0 0.0 0.00 0.00 0.00 7 987.3
20260505193622 56 0.0 0.0 0.00 0.00 0.00 7 987.2
20260505193522 56 0.0 0.0 0.00 0.00 0.00 7 987.2
20260505193422 56 0.0 0.0 0.00 0.00 0.00 7 987.2
20260505193322 56 0.0 0.0 0.00 0.00 0.00 7 987.2
20260505193222 56 0.0 0.0 0.00 0.00 0.00 7 987.2
20260505193121 57 0.0 0.0 0.00 0.00 0.00 7 987.2
20260505193021 56 0.0 0.0 0.00 0.00 0.00 7 987.2
20260505192921 56 0.0 0.0 0.00 0.00 0.00 7 987.2
20260505192821 57 0.0 0.0 0.00 0.00 0.00 7 987.2
20260505192721 57 0.0 0.0 0.00 0.00 0.00 7 987.2
20260505192621 57 0.0 0.0 0.00 0.00 0.00 7 987.1
20260505192521 57 0.0 0.0 0.00 0.00 0.00 7 987.2
20260505192421 57 0.0 0.0 0.00 0.00 0.00 7 987.1
20260505192321 57 0.0 0.0 0.00 0.00 0.00 7 987.1
20260505192221 57 0.0 0.0 0.00 0.00 0.00 7 987.1
20260505192121 57 0.0 0.0 0.00 0.00 0.00 7 987.1
20260505192021 57 0.0 0.0 0.00 0.00 0.00 7 987.1
20260505191921 57 0.0 0.0 0.00 0.00 0.00 7 987.1
20260505191820 57 0.0 0.0 0.00 0.00 0.00 7 987.1
20260505191720 57 0.0 0.0 0.00 0.00 0.00 7 987.1
20260505191620 57 0.0 0.0 0.00 0.00 0.00 7 987.1
20260505191520 57 0.0 0.0 0.00 0.00 0.00 7 987.1
20260505191420 58 0.0 0.0 0.00 0.00 0.00 6 987.0
20260505191320 58 0.0 0.0 0.00 0.00 0.00 6 987.0
20260505191220 58 0.0 0.0 0.00 0.00 0.00 6 987.0
20260505191120 58 0.0 0.0 0.00 0.00 0.00 6 987.0
20260505191020 59 0.0 0.0 0.00 0.00 0.00 6 987.0
20260505190920 58 0.0 0.0 0.00 0.00 0.00 6 986.9
20260505190820 58 0.0 0.0 0.00 0.00 0.00 6 986.9
20260505190720 59 0.0 0.0 0.00 0.00 0.00 6 986.9
20260505190620 59 0.0 0.0 0.00 0.00 0.00 6 986.9
20260505190520 59 0.0 0.0 0.00 0.00 0.00 6 986.9
20260505190420 59 0.0 0.0 0.00 0.00 0.00 6 986.9
20260505190319 58 0.0 0.0 0.00 0.00 0.00 6 986.9
20260505190219 59 0.0 0.0 0.00 0.00 0.00 6 986.9
20260505190119 59 0.0 0.0 0.00 0.00 0.00 6 986.9
20260505190019 59 0.0 0.0 0.00 0.00 0.00 6 986.8
20260505185919 60 0.0 0.0 0.00 0.00 0.00 6 986.8
20260505185819 60 0.0 0.0 0.00 0.00 0.00 6 986.7
20260505185719 60 0.0 0.0 0.00 0.00 0.00 6 986.7
20260505185619 60 0.0 0.0 0.00 0.00 0.00 6 986.7
20260505185519 60 0.0 0.0 0.00 0.00 0.00 6 986.7
20260505185419 60 0.0 0.0 0.00 0.00 0.00 6 986.7
20260505185319 61 0.0 0.0 0.00 0.00 0.00 5 986.6
20260505185219 60 0.0 0.0 0.00 0.00 0.00 6 986.6
20260505185118 60 0.0 0.0 0.00 0.00 0.00 6 986.6
20260505185018 60 0.0 0.0 0.00 0.00 0.00 6 986.6
20260505184918 60 0.0 0.0 0.00 0.00 0.00 6 986.6
20260505184818 61 0.0 0.0 0.00 0.00 0.00 6 986.5
20260505184718 61 0.0 0.0 0.00 0.00 0.00 6 986.5
20260505184618 61 0.0 0.0 0.00 0.00 0.00 5 986.4
20260505184518 61 0.0 0.0 0.00 0.00 0.00 5 986.4
20260505184418 61 0.0 0.0 0.00 0.00 0.00 5 986.4
20260505184318 62 0.0 0.0 0.00 0.00 0.00 5 986.4
20260505184218 61 0.0 0.0 0.00 0.00 0.00 5 986.4
20260505184118 61 0.0 0.0 0.00 0.00 0.00 5 986.5
20260505184018 61 0.0 0.0 0.00 0.00 0.00 5 986.4
20260505183917 60 0.0 0.0 0.00 0.00 0.00 6 986.5
20260505183817 60 0.0 0.0 0.00 0.00 0.00 6 986.5
20260505183717 61 0.0 0.0 0.00 0.00 0.00 6 986.5
20260505183617 61 0.0 0.0 0.00 0.00 0.00 6 986.5
20260505183517 61 0.0 0.0 0.00 0.00 0.00 6 986.5
20260505183417 62 0.0 0.0 0.00 0.00 0.00 5 986.4
20260505183317 62 0.0 0.0 0.00 0.00 0.00 5 986.4
20260505183217 62 0.0 0.0 0.00 0.00 0.00 5 986.3
20260505183117 62 0.0 0.0 0.00 0.00 0.00 5 986.3
20260505183017 63 0.0 0.0 0.00 0.00 0.00 5 986.3
20260505182917 63 0.0 0.0 0.00 0.00 0.00 5 986.3
20260505182817 63 0.0 0.0 0.00 0.00 0.00 5 986.3
20260505182716 63 0.0 0.0 0.00 0.00 0.00 5 986.2
20260505182616 63 0.0 0.0 0.00 0.00 0.00 5 986.2
20260505182516 63 0.0 0.0 0.00 0.00 0.00 5 986.2
20260505182416 63 0.0 0.0 0.00 0.00 0.00 5 986.2
20260505182316 63 0.0 0.0 0.00 0.00 0.00 5 986.2
20260505182216 63 0.0 0.0 0.00 0.00 0.00 5 986.2
20260505182116 63 0.0 0.0 0.00 0.00 0.00 5 986.1
20260505182016 63 0.0 0.0 0.00 0.00 0.00 5 986.1
20260505181916 63 0.0 0.0 0.00 0.00 0.00 5 986.1
20260505181816 63 0.0 0.0 0.00 0.00 0.00 5 986.1
20260505181715 63 0.0 0.0 0.00 0.00 0.00 5 986.1
20260505181615 63 0.0 0.0 0.00 0.00 0.00 5 986.0
20260505181515 64 0.0 0.0 0.00 0.00 0.00 5 986.0
20260505181415 64 0.0 0.0 0.00 0.00 0.00 5 986.0
20260505181315 64 0.0 0.0 0.00 0.00 0.00 5 986.0
20260505181215 64 0.0 0.0 0.00 0.00 0.00 5 986.0
20260505181115 63 0.0 0.0 0.00 0.00 0.00 5 986.0
20260505181015 64 0.0 0.0 0.00 0.00 0.00 5 986.0
20260505180915 64 0.0 0.0 0.00 0.00 0.00 5 985.9
20260505180815 64 0.0 0.0 0.00 0.00 0.00 5 985.9
20260505180715 64 0.0 0.0 0.00 0.00 0.00 5 985.9
20260505180615 64 0.0 0.0 0.00 0.00 0.00 5 985.9
20260505180515 64 0.0 0.0 0.00 0.00 0.00 5 985.9
20260505180414 64 0.0 0.0 0.00 0.00 0.00 5 985.9
20260505180314 64 0.0 0.0 0.00 0.00 0.00 5 985.9
20260505180214 65 0.0 0.0 0.00 0.00 0.00 5 985.8
20260505180114 65 0.0 0.0 0.00 0.00 0.00 5 985.8
20260505180014 65 0.0 0.0 0.00 0.00 0.00 5 985.8
20260505175914 65 0.0 0.0 0.00 0.00 0.00 5 985.8
20260505175814 66 0.0 0.0 0.00 0.00 0.00 5 985.8
20260505175714 66 0.0 0.0 0.00 0.00 0.00 5 985.8
20260505175614 65 0.0 0.0 0.00 0.00 0.00 5 985.8
20260505175514 65 0.0 0.0 0.00 0.00 0.00 5 985.8
20260505175414 65 0.0 0.0 0.00 0.00 0.00 5 985.8
20260505175314 65 0.0 0.0 0.00 0.00 0.00 5 985.7
20260505175214 65 0.0 0.0 0.00 0.00 0.00 5 985.7
20260505175114 65 0.0 0.0 0.00 0.00 0.00 5 985.7
20260505175014 65 0.0 0.0 0.00 0.00 0.00 5 985.7
20260505174913 66 0.0 0.0 0.00 0.00 0.00 5 985.7
20260505174813 66 0.0 0.0 0.00 0.00 0.00 5 985.7
20260505174713 66 0.0 0.0 0.00 0.00 0.00 5 985.6
20260505174613 66 0.0 0.0 0.00 0.00 0.00 5 985.7
20260505174513 66 0.0 0.0 0.00 0.00 0.00 5 985.7
20260505174413 66 0.0 0.0 0.00 0.00 0.00 5 985.7
20260505174313 66 0.0 0.0 0.00 0.00 0.00 5 985.7
20260505174213 67 0.0 0.0 0.00 0.00 0.00 5 985.6
20260505174113 67 0.0 0.0 0.00 0.00 0.00 5 985.6
20260505174013 67 0.0 0.0 0.00 0.00 0.00 5 985.6
20260505173913 67 0.0 0.0 0.00 0.00 0.00 5 985.6
20260505173813 67 0.0 0.0 0.00 0.00 0.00 5 985.6
20260505173713 67 0.0 0.0 0.00 0.00 0.00 5 985.6
20260505173613 67 0.0 0.0 0.00 0.00 0.00 5 985.6
20260505173513 67 0.0 0.0 0.00 0.00 0.00 5 985.6
20260505173413 68 0.0 0.0 0.00 0.00 0.00 5 985.6
20260505173313 68 0.0 0.0 0.00 0.00 0.00 5 985.5
20260505173213 68 0.0 0.0 0.00 0.00 0.00 5 985.5
20260505173113 68 0.0 0.0 0.00 0.00 0.00 5 985.5
20260505173012 68 0.0 0.0 0.00 0.00 0.00 5 985.5
20260505172912 68 0.0 0.0 0.00 0.00 0.00 5 985.6
20260505172813 68 0.0 0.0 0.00 0.00 0.00 5 985.5
20260505172712 68 0.0 0.0 0.00 0.00 0.00 5 985.6
20260505172612 68 0.0 0.0 0.00 0.00 0.00 5 985.5
20260505172512 68 0.0 0.0 0.00 0.00 0.00 5 985.6
20260505172412 69 0.0 0.0 0.00 0.00 0.00 5 985.5
20260505172312 69 0.0 0.0 0.00 0.00 0.00 4 985.5
20260505172212 69 0.0 0.0 0.00 0.00 0.00 5 985.5
20260505172112 69 0.0 0.0 0.00 0.00 0.00 5 985.5
20260505172012 69 0.0 0.0 0.00 0.00 0.00 5 985.5
20260505171912 70 0.0 0.0 0.00 0.00 0.00 4 985.5
20260505171812 69 0.0 0.0 0.00 0.00 0.00 5 985.5
20260505171712 71 0.0 0.0 0.00 0.00 0.00 4 985.4
20260505171612 70 0.0 0.0 0.00 0.00 0.00 4 985.4
20260505171512 70 0.0 0.0 0.00 0.00 0.00 4 985.4
20260505171411 71 0.0 0.0 0.00 0.00 0.00 4 985.4
20260505171312 71 0.0 0.0 0.00 0.00 0.00 4 985.4
20260505171211 71 0.0 0.0 0.00 0.00 0.00 4 985.4
20260505171111 71 0.0 0.0 0.00 0.00 0.00 4 985.3
20260505171011 71 0.0 0.0 0.00 0.00 0.00 4 985.3
20260505170911 71 0.0 0.0 0.00 0.00 0.00 4 985.3
20260505170811 71 0.0 0.0 0.00 0.00 0.00 4 985.3
20260505170711 71 0.0 0.0 0.00 0.00 0.00 4 985.4
20260505170611 70 0.0 0.0 0.00 0.00 0.00 5 985.4
20260505170511 71 0.0 0.0 0.00 0.00 0.00 4 985.4
20260505170411 71 0.0 0.0 0.00 0.00 0.00 4 985.4
20260505170311 71 0.0 0.0 0.00 0.00 0.00 5 985.4
20260505170211 71 0.0 0.0 0.00 0.00 0.00 5 985.4
20260505170110 72 0.0 0.0 0.00 0.00 0.00 4 985.3
20260505170010 72 0.0 0.0 0.00 0.00 0.00 4 985.3
20260505165910 72 0.0 0.0 0.00 0.00 0.00 4 985.3
20260505165810 72 0.0 0.0 0.00 0.00 0.00 4 985.3
20260505165710 72 0.0 0.0 0.00 0.00 0.00 4 985.3
20260505165610 72 0.0 0.0 0.00 0.00 0.00 4 985.3
20260505165510 73 0.0 0.0 0.00 0.00 0.00 4 985.3
20260505165410 73 0.0 0.0 0.00 0.00 0.00 4 985.2
20260505165310 73 0.0 0.0 0.00 0.00 0.00 4 985.3
20260505165210 73 0.0 0.0 0.00 0.00 0.00 4 985.2
20260505165110 73 0.0 0.0 0.00 0.00 0.00 4 985.3
20260505165010 73 0.0 0.0 0.00 0.00 0.00 4 985.3
20260505164910 73 0.0 0.0 0.00 0.00 0.00 4 985.2
20260505164810 72 0.0 0.0 0.00 0.00 0.00 4 985.3
20260505164709 73 0.0 0.0 0.00 0.00 0.00 4 985.3
20260505164609 73 0.0 0.0 0.00 0.00 0.00 4 985.3
20260505164509 72 0.0 0.0 0.00 0.00 0.00 5 985.3
20260505164409 72 0.0 0.0 0.00 0.00 0.00 5 985.3
20260505164309 71 0.0 0.0 0.00 0.00 0.00 5 985.3
20260505164209 72 0.0 0.0 0.00 0.00 0.00 5 985.3
20260505164109 72 0.0 0.0 0.00 0.00 0.00 5 985.3
20260505164009 73 0.0 0.0 0.00 0.00 0.00 4 985.3
20260505163909 73 0.0 0.0 0.00 0.00 0.00 4 985.2
20260505163809 73 0.0 0.0 0.00 0.00 0.00 4 985.2
20260505163709 74 0.0 0.0 0.00 0.00 0.00 4 985.2
20260505163609 73 0.0 0.0 0.00 0.00 0.00 4 985.3
20260505163508 73 0.0 0.0 0.00 0.00 0.00 4 985.3
20260505163408 73 0.0 0.0 0.00 0.00 0.00 4 985.3
20260505163308 73 0.0 0.0 0.00 0.00 0.00 4 985.3
20260505163208 73 0.0 0.0 0.00 0.00 0.00 4 985.3
20260505163108 73 0.0 0.0 0.00 0.00 0.00 4 985.3
20260505163009 73 0.0 0.0 0.00 0.00 0.00 4 985.2
20260505162908 73 0.0 0.0 0.00 0.00 0.00 4 985.2
20260505162808 73 0.0 0.0 0.00 0.00 0.00 4 985.2
20260505162708 73 0.0 0.0 0.00 0.00 0.00 4 985.2
20260505162608 74 0.0 0.0 0.00 0.00 0.00 4 985.2
20260505162508 74 0.0 0.0 0.00 0.00 0.00 4 985.1
20260505162408 75 0.0 0.0 0.00 0.00 0.00 4 985.1
20260505162307 74 0.0 0.0 0.00 0.00 0.00 4 985.1
20260505162207 74 0.0 0.0 0.00 0.00 0.00 4 985.1
20260505162107 74 0.0 0.0 0.00 0.00 0.00 4 985.1
20260505162007 74 0.0 0.0 0.00 0.00 0.00 4 985.1
20260505161907 75 0.0 0.0 0.00 0.00 0.00 4 985.1
20260505161807 74 0.0 0.0 0.00 0.00 0.00 4 985.1
20260505161707 75 0.0 0.0 0.00 0.00 0.00 4 985.1
20260505161607 75 0.0 0.0 0.00 0.00 0.00 4 985.1
20260505161507 75 0.0 0.0 0.00 0.00 0.00 4 985.1
20260505161407 75 0.0 0.0 0.00 0.00 0.00 4 985.1
20260505161307 75 0.0 0.0 0.00 0.00 0.00 4 985.1
20260505161207 75 0.0 0.0 0.00 0.00 0.00 4 985.1
20260505161106 75 0.0 0.0 0.00 0.00 0.00 4 985.1
20260505161006 75 0.0 0.0 0.00 0.00 0.00 4 985.1
20260505160906 76 0.0 0.0 0.00 0.00 0.00 4 985.1
20260505160806 76 0.0 0.0 0.00 0.00 0.00 4 985.1
20260505160706 77 0.0 0.0 0.00 0.00 0.00 4 985.0
20260505160606 76 0.0 0.0 0.00 0.00 0.00 4 985.1
20260505160506 76 0.0 0.0 0.00 0.00 0.00 4 985.1
20260505160406 76 0.0 0.0 0.00 0.00 0.00 4 985.1
20260505160306 77 0.0 0.0 0.00 0.00 0.00 4 985.1
20260505160206 78 0.0 0.0 0.00 0.00 0.00 4 985.1
20260505160106 78 0.0 0.0 0.00 0.00 0.00 3 984.9
20260505153303 78 0.0 0.0 0.00 0.00 0.00 3 985.2
20260505153203 79 0.0 0.0 0.00 0.00 0.00 4 985.2
20260505153103 79 0.0 0.0 0.00 0.00 0.00 4 985.2
20260505153003 78 0.0 0.0 0.00 0.00 0.00 3 985.2
20260505152903 79 0.0 0.0 0.00 0.00 0.00 3 985.1
20260505152803 79 0.0 0.0 0.00 0.00 0.00 3 985.2
20260505152703 80 0.0 0.0 0.00 0.00 0.00 3 985.2
20260505152603 79 0.0 0.0 0.00 0.00 0.00 3 985.2
20260505152503 80 0.0 0.0 0.00 0.00 0.00 3 985.1
20260505152403 80 0.0 0.0 0.00 0.00 0.00 3 985.1
20260505152305 80 0.0 0.0 0.00 0.00 0.00 3 985.1
20260505152203 80 0.0 0.0 0.00 0.00 0.00 3 985.1
20260505152102 80 0.0 0.0 0.00 0.00 0.00 3 985.1
20260505152002 80 0.0 0.0 0.00 0.00 0.00 3 985.1
20260505151902 80 0.0 0.0 0.00 0.00 0.00 3 985.1
20260505151802 80 0.0 0.0 0.00 0.00 0.00 3 985.1
20260505151702 81 0.0 0.0 0.00 0.00 0.00 3 985.1
20260505151602 81 0.0 0.0 0.00 0.00 0.00 3 985.1
20260505151502 81 0.0 0.0 0.00 0.00 0.00 2 985.1
20260505151402 80 0.0 0.0 0.00 0.00 0.00 3 985.2
20260505151302 80 0.0 0.0 0.00 0.00 0.00 3 985.1
20260505151202 81 0.0 0.0 0.00 0.00 0.00 2 985.1
20260505151102 80 0.0 0.0 0.00 0.00 0.00 3 985.1
20260505151002 80 0.0 0.0 0.00 0.00 0.00 3 985.1
20260505150902 80 0.0 0.0 0.00 0.00 0.00 3 985.1
20260505150802 81 0.0 0.0 0.00 0.00 0.00 2 985.1
20260505150702 81 0.0 0.0 0.00 0.00 0.00 2 985.1
20260505150601 82 0.0 0.0 0.00 0.00 0.00 2 985.1
20260505150501 82 0.0 0.0 0.00 0.00 0.00 2 985.1
20260505150401 82 0.0 0.0 0.00 0.00 0.00 3 985.1
20260505150301 82 0.0 0.0 0.00 0.00 0.00 3 985.2
20260505150201 81 0.0 0.0 0.00 0.00 0.00 3 985.2
20260505140556 82 0.0 0.0 0.00 0.00 0.00 2 985.7
20260505140456 83 0.0 0.0 0.00 0.00 0.00 2 985.7
20260505140356 83 0.0 0.0 0.00 0.00 0.00 2 985.7
20260505140256 83 0.0 0.0 0.00 0.00 0.00 2 985.7
20260505140156 83 0.0 0.0 0.00 0.00 0.00 2 985.7
20260505130251 82 0.0 0.0 0.00 0.00 0.00 2 986.1
20260505130151 82 0.0 0.0 0.00 0.00 0.00 2 986.2
20260505124950 83 0.0 0.0 0.00 0.00 0.00 3 986.3
20260505124850 83 0.0 0.0 0.00 0.00 0.00 2 986.3
20260505124750 83 0.0 0.0 0.00 0.00 0.00 2 986.3
20260505124650 83 0.0 0.0 0.00 0.00 0.00 2 986.4
20260505124550 83 0.0 0.0 0.00 0.00 0.00 2 986.4
20260505124450 83 0.0 0.0 0.00 0.00 0.00 2 986.3
20260505124350 83 0.0 0.0 0.00 0.00 0.00 2 986.3
20260505124250 83 0.0 0.0 0.00 0.00 0.00 2 986.4
20260505124149 83 0.0 0.0 0.00 0.00 0.00 2 986.4
20260505124049 84 0.0 0.0 0.00 0.00 0.00 3 986.3
20260505123949 83 0.0 0.0 0.00 0.00 0.00 3 986.4
20260505123849 82 0.0 0.0 0.00 0.00 0.00 2 986.3
20260505123749 82 0.0 0.0 0.00 0.00 0.00 2 986.4
20260505123649 82 0.0 0.0 0.00 0.00 0.00 2 986.4
20260505123549 84 0.0 0.0 0.00 0.00 0.00 3 986.4
20260505123449 83 0.0 0.0 0.00 0.00 0.00 2 986.4
20260505123349 83 0.0 0.0 0.00 0.00 0.00 2 986.4
20260505123249 83 0.0 0.0 0.00 0.00 0.00 3 986.5
20260505123149 84 0.0 0.0 0.00 0.00 0.00 3 986.5
20260505123048 83 0.0 0.0 0.00 0.00 0.00 2 986.5
20260505122948 82 0.0 0.0 0.00 0.00 0.00 2 986.5
20260505122848 83 0.0 0.0 0.00 0.00 0.00 2 986.5
20260505122748 84 0.0 0.0 0.00 0.00 0.00 3 986.5
20260505122648 84 0.0 0.0 0.00 0.00 0.00 3 986.6
20260505122548 84 0.0 0.0 0.00 0.00 0.00 2 986.5
20260505122448 84 0.0 0.0 0.00 0.00 0.00 3 986.6
20260505122348 82 0.0 0.0 0.00 0.00 0.00 2 986.6
20260505122248 83 0.0 0.0 0.00 0.00 0.00 3 986.6
20260505122148 83 0.0 0.0 0.00 0.00 0.00 2 986.6
20260505122048 83 0.0 0.0 0.00 0.00 0.00 2 986.6
20260505121948 82 0.0 0.0 0.00 0.00 0.00 2 986.7
20260505121847 83 0.0 0.0 0.00 0.00 0.00 2 986.7
20260505121747 83 0.0 0.0 0.00 0.00 0.00 2 986.7
20260505121647 83 0.0 0.0 0.00 0.00 0.00 2 986.7
20260505121547 83 0.0 0.0 0.00 0.00 0.00 2 986.7
20260505121447 83 0.0 0.0 0.00 0.00 0.00 2 986.7
20260505121347 83 0.0 0.0 0.00 0.00 0.00 2 986.7
20260505121247 83 0.0 0.0 0.00 0.00 0.00 2 986.7
20260505121147 83 0.0 0.0 0.00 0.00 0.00 2 986.8
20260505121047 83 0.0 0.0 0.00 0.00 0.00 2 986.8
20260505120947 83 0.0 0.0 0.00 0.00 0.00 2 986.8
20260505120847 82 0.0 0.0 0.00 0.00 0.00 2 986.8
20260505120747 83 0.0 0.0 0.00 0.00 0.00 2 986.8
20260505120647 83 0.0 0.0 0.00 0.00 0.00 2 986.8
20260505120547 82 0.0 0.0 0.00 0.00 0.00 2 986.9
20260505120447 84 0.0 0.0 0.00 0.00 0.00 2 986.9
20260505120346 84 0.0 0.0 0.00 0.00 0.00 3 986.9
20260505120246 83 0.0 0.0 0.00 0.00 0.00 2 986.9
20260505120146 82 0.0 0.0 0.00 0.00 0.00 3 986.9
20260505120046 82 0.0 0.0 0.00 0.00 0.00 2 986.9
20260505115946 85 0.0 0.0 0.00 0.00 0.00 3 986.9
20260505115846 85 0.0 0.0 0.00 0.00 0.00 3 986.9
20260505115746 85 0.0 0.0 0.00 0.00 0.00 3 986.9
20260505115646 84 0.0 0.0 0.00 0.00 0.00 3 986.9
20260505115546 85 0.0 0.0 0.00 0.00 0.00 3 986.9
20260505115446 84 0.0 0.0 0.00 0.00 0.00 3 987.1
20260505115346 83 0.0 0.0 0.00 0.00 0.00 3 987.1
20260505115246 82 0.0 0.0 0.00 0.00 0.00 3 987.1
20260505115146 83 0.0 0.0 0.00 0.00 0.00 2 987.1
20260505115046 83 0.0 0.0 0.00 0.00 0.00 2 987.0
20260505114945 83 0.0 0.0 0.00 0.00 0.00 3 987.1
20260505114845 83 0.0 0.0 0.00 0.00 0.00 3 987.1
20260505114745 84 0.0 0.0 0.00 0.00 0.00 2 987.0
20260505114645 84 0.0 0.0 0.00 0.00 0.00 2 987.1
20260505114545 83 0.0 0.0 0.00 0.00 0.00 2 987.0
20260505114445 83 0.0 0.0 0.00 0.00 0.00 3 987.1
20260505114345 82 0.0 0.0 0.00 0.00 0.00 3 987.1
20260505114245 82 0.0 0.0 0.00 0.00 0.00 3 987.1
20260505114145 81 0.0 0.0 0.00 0.00 0.00 3 987.1
20260505114045 80 0.0 0.0 0.00 0.00 0.00 3 987.1
20260505113945 79 0.0 0.0 0.00 0.00 0.00 3 987.2
20260505113845 78 0.0 0.0 0.00 0.00 0.00 3 987.2
20260505113744 79 0.0 0.0 0.00 0.00 0.00 3 987.2
20260505113644 79 0.0 0.0 0.00 0.00 0.00 3 987.2
20260505113544 80 0.0 0.0 0.00 0.00 0.00 3 987.2
20260505113444 81 0.0 0.0 0.00 0.00 0.00 3 987.2
20260505113344 80 0.0 0.0 0.00 0.00 0.00 3 987.2
20260505113244 80 0.0 0.0 0.00 0.00 0.00 2 987.2
20260505113144 81 0.0 0.0 0.00 0.00 0.00 2 987.2
20260505113044 82 0.0 0.0 0.00 0.00 0.00 2 987.2
20260505112944 83 0.0 0.0 0.00 0.00 0.00 2 987.2
20260505112844 83 0.0 0.0 0.00 0.00 0.00 2 987.2
20260505112744 82 0.0 0.0 0.00 0.00 0.00 2 987.2
20260505112644 82 0.0 0.0 0.00 0.00 0.00 2 987.2
20260505112544 82 0.0 0.0 0.00 0.00 0.00 2 987.3
20260505112443 82 0.0 0.0 0.00 0.00 0.00 2 987.2
20260505112343 82 0.0 0.0 0.00 0.00 0.00 2 987.3
20260505112243 83 0.0 0.0 0.00 0.00 0.00 2 987.3
20260505112143 84 0.0 0.0 0.00 0.00 0.00 2 987.3
20260505112043 84 0.0 0.0 0.00 0.00 0.00 2 987.3
20260505111943 82 0.0 0.0 0.00 0.00 0.00 2 987.3
20260505111843 82 0.0 0.0 0.00 0.00 0.00 2 987.4
20260505111743 83 0.0 0.0 0.00 0.00 0.00 3 987.3
20260505111643 85 0.0 0.0 0.00 0.00 0.00 2 987.3
20260505111543 84 0.0 0.0 0.00 0.00 0.00 3 987.4
20260505111442 85 0.0 0.0 0.00 0.00 0.00 3 987.4
20260505111342 84 0.0 0.0 0.00 0.00 0.00 2 987.4
20260505111242 83 0.0 0.0 0.00 0.00 0.00 3 987.4
20260505111142 84 0.0 0.0 0.00 0.00 0.00 3 987.5
20260505111042 84 0.0 0.0 0.00 0.00 0.00 2 987.4
20260505110942 84 0.0 0.0 0.00 0.00 0.00 3 987.5
20260505110842 84 0.0 0.0 0.00 0.00 0.00 2 987.4
20260505110742 83 0.0 0.0 0.00 0.00 0.00 2 987.5
20260505110642 82 0.0 0.0 0.00 0.00 0.00 2 987.5
20260505110542 83 0.0 0.0 0.00 0.00 0.00 2 987.5
20260505110442 81 0.0 0.0 0.00 0.00 0.00 2 987.5
20260505110342 82 0.0 0.0 0.00 0.00 0.00 2 987.5
20260505110242 82 0.0 0.0 0.00 0.00 0.00 2 987.4
20260505110141 84 0.0 0.0 0.00 0.00 0.00 2 987.6